• In Uzbekistan
  • List of Countries
  • For 7 days
  • Water Temperature
  • Satellite Maps
  • Weather Map
  • Weather Widgets
  • user-avatar
    Login

    Hourly Weather Shaki

    Today, 19 January, Friday

    Time Temperature Precipitation Wind Pressure Humidity
    00:00 +4°C° 0.1 mm 2 mps 727 mmHg 69%
    01:00 +3°C° 0 mm 3 mps 727 mmHg 69%
    02:00 +3°C° 0 mm 3 mps 727 mmHg 69%
    03:00 +3°C° 0 mm 3 mps 727 mmHg 69%
    04:00 +3°C° 0 mm 3 mps 727 mmHg 67%
    05:00 +3°C° 0 mm 3 mps 727 mmHg 66%
    06:00 +3°C° 0 mm 3 mps 727 mmHg 65%
    07:00 +4°C° 0 mm 4 mps 728 mmHg 62%
    08:00 +5°C° 0 mm 4 mps 728 mmHg 59%
    09:00 +6°C° 0 mm 4 mps 728 mmHg 56%
    10:00 +8°C° 0 mm 4 mps 728 mmHg 53%
    11:00 +10°C° 0 mm 4 mps 728 mmHg 50%
    12:00 +12°C° 0 mm 4 mps 728 mmHg 46%
    13:00 +12°C° 0 mm 4 mps 728 mmHg 45%
    14:00 +12°C° 0 mm 4 mps 728 mmHg 44%
    15:00 +12°C° 0 mm 3 mps 728 mmHg 43%
    16:00 +11°C° 0 mm 3 mps 729 mmHg 44%
    17:00 +9°C° 0 mm 3 mps 729 mmHg 45%
    18:00 +8°C° 0 mm 3 mps 730 mmHg 46%
    19:00 +7°C° 0 mm 3 mps 731 mmHg 45%
    20:00 +7°C° 0 mm 3 mps 731 mmHg 44%
    21:00 +7°C° 0 mm 3 mps 731 mmHg 42%
    22:00 +7°C° 0 mm 3 mps 731 mmHg 43%
    23:00 +7°C° 0 mm 3 mps 732 mmHg 43%

    Tomorrow, 20 January, Saturday

    Time Temperature Precipitation Wind Pressure Humidity
    00:00 +7°C° 0 mm 3 mps 732 mmHg 44%
    01:00 +5°C° 0 mm 3 mps 732 mmHg 44%
    02:00 +5°C° 0 mm 3 mps 733 mmHg 45%
    03:00 +5°C° 0 mm 3 mps 733 mmHg 46%
    04:00 +5°C° 0 mm 3 mps 734 mmHg 47%
    05:00 +5°C° 0 mm 3 mps 734 mmHg 48%
    06:00 +5°C° 0 mm 3 mps 734 mmHg 49%
    07:00 +7°C° 0 mm 3 mps 735 mmHg 51%
    08:00 +7°C° 0 mm 2 mps 736 mmHg 52%
    09:00 +8°C° 0 mm 2 mps 736 mmHg 53%
    10:00 +9°C° 0 mm 2 mps 736 mmHg 52%
    11:00 +10°C° 0 mm 2 mps 737 mmHg 51%
    12:00 +12°C° 0 mm 2 mps 737 mmHg 50%
    13:00 +12°C° 0 mm 2 mps 737 mmHg 50%
    14:00 +12°C° 0 mm 2 mps 737 mmHg 50%
    15:00 +12°C° 0 mm 1 mps 737 mmHg 50%
    16:00 +10°C° 0 mm 2 mps 738 mmHg 55%
    17:00 +9°C° 0 mm 2 mps 738 mmHg 59%
    18:00 +7°C° 0 mm 2 mps 738 mmHg 64%
    19:00 +7°C° 0 mm 2 mps 739 mmHg 65%
    20:00 +6°C° 0 mm 2 mps 739 mmHg 67%
    21:00 +6°C° 0 mm 2 mps 739 mmHg 69%
    22:00 +5°C° 0 mm 2 mps 739 mmHg 67%
    23:00 +5°C° 0 mm 2 mps 739 mmHg 66%

    Day after tomorrow, 21 January, Sunday

    Time Temperature Precipitation Wind Pressure Humidity
    00:00 +6°C° 0 mm 1 mps 739 mmHg 64%
    01:00 +5°C° 0 mm 2 mps 739 mmHg 62%
    02:00 +4°C° 0 mm 2 mps 739 mmHg 59%
    03:00 +4°C° 0 mm 2 mps 738 mmHg 57%
    04:00 +4°C° 0 mm 2 mps 738 mmHg 55%
    05:00 +4°C° 0 mm 2 mps 738 mmHg 54%
    06:00 +4°C° 0 mm 2 mps 737 mmHg 52%
    07:00 +5°C° 0 mm 2 mps 737 mmHg 50%
    08:00 +6°C° 0 mm 2 mps 737 mmHg 48%
    09:00 +7°C° 0 mm 2 mps 737 mmHg 45%
    10:00 +9°C° 0 mm 2 mps 736 mmHg 43%
    11:00 +10°C° 0 mm 3 mps 736 mmHg 41%
    12:00 +11°C° 0 mm 3 mps 735 mmHg 39%
    13:00 +12°C° 0 mm 4 mps 735 mmHg 38%
    14:00 +12°C° 0 mm 4 mps 734 mmHg 37%
    15:00 +12°C° 0 mm 4 mps 734 mmHg 35%
    16:00 +11°C° 0 mm 4 mps 735 mmHg 36%
    17:00 +10°C° 0 mm 4 mps 735 mmHg 37%
    18:00 +7°C° 0 mm 4 mps 735 mmHg 37%
    19:00 +8°C° 0 mm 3 mps 735 mmHg 36%
    20:00 +8°C° 0 mm 3 mps 735 mmHg 35%
    21:00 +8°C° 0 mm 3 mps 735 mmHg 35%
    22:00 +7°C° 0 mm 3 mps 735 mmHg 34%
    23:00 +7°C° 0 mm 3 mps 735 mmHg 34%

    22 January, Monday

    Time Temperature Precipitation Wind Pressure Humidity
    00:00 +7°C° 0 mm 2 mps 735 mmHg 34%
    01:00 +7°C° 0 mm 2 mps 735 mmHg 33%
    02:00 +7°C° 0 mm 2 mps 734 mmHg 33%
    03:00 +6°C° 0 mm 2 mps 734 mmHg 33%
    04:00 +6°C° 0 mm 2 mps 734 mmHg 33%
    05:00 +6°C° 0 mm 2 mps 734 mmHg 34%
    06:00 +7°C° 0 mm 1 mps 733 mmHg 34%
    07:00 +8°C° 0 mm 1 mps 733 mmHg 35%
    08:00 +9°C° 0 mm 1 mps 733 mmHg 35%
    09:00 +10°C° 0 mm 1 mps 733 mmHg 36%
    10:00 +11°C° 0 mm 1 mps 732 mmHg 35%
    11:00 +12°C° 0 mm 1 mps 731 mmHg 34%
    12:00 +13°C° 0 mm 1 mps 731 mmHg 33%
    13:00 +13°C° 0 mm 1 mps 730 mmHg 33%
    14:00 +13°C° 0 mm 2 mps 730 mmHg 34%
    15:00 +13°C° 0 mm 2 mps 729 mmHg 34%
    16:00 +10°C° 0 mm 2 mps 729 mmHg 35%
    17:00 +9°C° 0 mm 2 mps 729 mmHg 37%
    18:00 +7°C° 0 mm 2 mps 729 mmHg 38%
    19:00 +7°C° 0 mm 2 mps 729 mmHg 37%
    20:00 +7°C° 0 mm 3 mps 729 mmHg 36%
    21:00 +7°C° 0 mm 3 mps 729 mmHg 35%
    22:00 +7°C° 0 mm 3 mps 729 mmHg 34%
    23:00 +5°C° 0 mm 3 mps 729 mmHg 33%

    23 January, Tuesday

    Time Temperature Precipitation Wind Pressure Humidity
    00:00 +5°C° 0 mm 3 mps 729 mmHg 32%
    01:00 +5°C° 0 mm 3 mps 729 mmHg 32%
    02:00 +5°C° 0 mm 4 mps 729 mmHg 33%
    03:00 +5°C° 0 mm 4 mps 729 mmHg 34%
    04:00 +5°C° 0 mm 4 mps 729 mmHg 35%
    05:00 +5°C° 0 mm 4 mps 729 mmHg 36%
    06:00 +5°C° 0 mm 4 mps 729 mmHg 37%
    07:00 +6°C° 0 mm 4 mps 730 mmHg 37%
    08:00 +7°C° 0 mm 4 mps 730 mmHg 37%
    09:00 +9°C° 0 mm 3 mps 730 mmHg 37%
    10:00 +10°C° 0 mm 4 mps 730 mmHg 36%
    11:00 +12°C° 0 mm 4 mps 730 mmHg 35%
    12:00 +13°C° 0 mm 4 mps 729 mmHg 33%
    13:00 +13°C° 0 mm 3 mps 729 mmHg 33%
    14:00 +13°C° 0 mm 3 mps 730 mmHg 34%
    15:00 +13°C° 0 mm 3 mps 730 mmHg 34%
    16:00 +12°C° 0 mm 3 mps 730 mmHg 35%
    17:00 +10°C° 0 mm 3 mps 730 mmHg 37%
    18:00 +9°C° 0 mm 3 mps 730 mmHg 38%
    19:00 +9°C° 0 mm 3 mps 730 mmHg 39%
    20:00 +9°C° 0 mm 3 mps 730 mmHg 40%
    21:00 +8°C° 0 mm 2 mps 730 mmHg 40%
    22:00 +8°C° 0 mm 2 mps 730 mmHg 42%
    23:00 +8°C° 0 mm 2 mps 730 mmHg 43%

    24 January, Wednesday

    Time Temperature Precipitation Wind Pressure Humidity
    00:00 +7°C° 0 mm 2 mps 730 mmHg 45%
    01:00 +7°C° 0 mm 2 mps 731 mmHg 46%
    02:00 +7°C° 0 mm 2 mps 731 mmHg 48%
    03:00 +7°C° 0 mm 2 mps 731 mmHg 50%
    04:00 +7°C° 0 mm 2 mps 731 mmHg 51%
    05:00 +5°C° 0 mm 3 mps 731 mmHg 53%
    06:00 +5°C° 0 mm 3 mps 732 mmHg 55%
    07:00 +7°C° 0 mm 3 mps 732 mmHg 54%
    08:00 +7°C° 0 mm 3 mps 733 mmHg 52%
    09:00 +8°C° 0 mm 3 mps 733 mmHg 51%
    10:00 +9°C° 0 mm 3 mps 733 mmHg 50%
    11:00 +10°C° 0 mm 3 mps 733 mmHg 48%
    12:00 +11°C° 0 mm 3 mps 733 mmHg 46%
    13:00 +11°C° 0 mm 3 mps 734 mmHg 45%
    14:00 +11°C° 0 mm 3 mps 734 mmHg 44%
    15:00 +12°C° 0 mm 2 mps 734 mmHg 43%
    16:00 +10°C° 0 mm 2 mps 734 mmHg 46%
    17:00 +10°C° 0 mm 1 mps 735 mmHg 50%
    18:00 +8°C° 0 mm 1 mps 735 mmHg 53%
    19:00 +8°C° 0 mm 1 mps 736 mmHg 54%
    20:00 +7°C° 0 mm 1 mps 736 mmHg 55%
    21:00 +6°C° 0 mm 2 mps 737 mmHg 56%
    22:00 +5°C° 0 mm 2 mps 737 mmHg 58%
    23:00 +5°C° 0 mm 2 mps 737 mmHg 59%
    Show more